TimeAST,TemperatureF,Dew PointF,Humidity,Sea Level PressureIn,VisibilityMPH,Wind Direction,Wind SpeedMPH,Gust SpeedMPH,PrecipitationIn,Events,Conditions,WindDirDegrees,DateUTC
12:56 AM,78.1,69.1,74,30.04,10.0,Calm,Calm,-,N/A,,Clear,0,2013-04-03 04:56:00
1:56 AM,75.9,69.1,79,30.01,10.0,Calm,Calm,-,N/A,,Clear,0,2013-04-03 05:56:00
2:56 AM,75.9,70.0,82,30.01,10.0,SW,3.5,-,N/A,,Partly Cloudy,230,2013-04-03 06:56:00
3:56 AM,75.9,70.0,82,30.01,10.0,Calm,Calm,-,N/A,,Partly Cloudy,0,2013-04-03 07:56:00
4:56 AM,75.9,70.0,82,30.01,10.0,Calm,Calm,-,N/A,,Partly Cloudy,0,2013-04-03 08:56:00
5:56 AM,75.9,70.0,82,30.03,10.0,SSW,3.5,-,N/A,,Scattered Clouds,200,2013-04-03 09:56:00
6:56 AM,75.9,70.0,82,30.04,10.0,Calm,Calm,-,N/A,,Partly Cloudy,0,2013-04-03 10:56:00
7:56 AM,80.1,69.1,69,30.07,10.0,Calm,Calm,-,N/A,,Partly Cloudy,0,2013-04-03 11:56:00
8:56 AM,82.9,68.0,60,30.08,10.0,Calm,Calm,-,N/A,,Partly Cloudy,0,2013-04-03 12:56:00
9:56 AM,86.0,69.1,57,30.08,10.0,East,8.1,-,N/A,,Partly Cloudy,100,2013-04-03 13:56:00
10:56 AM,88.0,66.9,49,30.07,10.0,Calm,Calm,-,N/A,,Partly Cloudy,0,2013-04-03 14:56:00
11:56 AM,86.0,71.1,61,30.05,10.0,NE,11.5,-,N/A,,Partly Cloudy,50,2013-04-03 15:56:00
12:56 PM,86.0,71.1,61,30.02,10.0,ENE,15.0,-,N/A,,Scattered Clouds,60,2013-04-03 16:56:00
1:56 PM,89.1,73.0,59,30.00,10.0,ENE,19.6,-,N/A,,Scattered Clouds,70,2013-04-03 17:56:00
2:56 PM,88.0,73.0,61,29.99,10.0,ENE,16.1,-,N/A,,Scattered Clouds,70,2013-04-03 18:56:00
3:56 PM,87.1,69.1,55,29.97,10.0,ENE,16.1,-,N/A,,Partly Cloudy,70,2013-04-03 19:56:00
4:56 PM,84.9,72.0,65,29.97,10.0,ENE,19.6,-,N/A,,Partly Cloudy,70,2013-04-03 20:56:00
5:56 PM,82.9,71.1,67,29.98,10.0,East,10.4,-,N/A,,Scattered Clouds,90,2013-04-03 21:56:00
6:56 PM,81.0,71.1,72,30.00,10.0,ESE,6.9,-,N/A,,Scattered Clouds,120,2013-04-03 22:56:00
7:56 PM,79.0,71.1,77,30.02,10.0,East,11.5,-,N/A,,Scattered Clouds,80,2013-04-03 23:56:00
8:56 PM,79.0,71.1,77,30.04,10.0,East,8.1,-,N/A,,Partly Cloudy,100,2013-04-04 00:56:00
9:56 PM,79.0,71.1,77,30.05,10.0,ESE,4.6,-,N/A,,Partly Cloudy,120,2013-04-04 01:56:00
10:56 PM,75.9,70.0,82,30.06,10.0,ENE,4.6,-,N/A,,Clear,70,2013-04-04 02:56:00
11:56 PM,77.0,71.1,82,30.06,10.0,East,3.5,-,N/A,,Partly Cloudy,100,2013-04-04 03:56:00